Regional Weather Roundup
Issued by NWS

Home | Current Version | Previous Version | Text Only | Print | Product List | Glossary On
Versions: 1 2 3 4 5 6 7 8 9 10 11 12 13 14 15 16 17 18 19 20 21 22 23 24 25 26 27 28 29 30 31 32 33 34 35 36 37 38 39 40 41 42 43 44 45 46 47 48 49 50
000
ASUS42 KTBW 051816
RWRFL
FLORIDA REGIONAL WEATHER ROUNDUP
NATIONAL WEATHER SERVICE TAMPA BAY RUSKIN FL
200 PM EDT SUN JUL 05 2015

NOTE: "FAIR" INDICATES FEW OR NO CLOUDS BELOW 12,000 FEET WITH NO
SIGNIFICANT WEATHER AND/OR OBSTRUCTIONS TO VISIBILITY.


FLZ001>010-012>015-112-114-115-051900-
PANHANDLE FLORIDA

CITY           SKY/WX    TMP DP  RH WIND       PRES   REMARKS
PENSACOLA      CLOUDY    73  71  93 E8        30.17F
PENSACOLA NAS  CLOUDY    77  70  79 E10       30.17F
MILTON NAS     CLOUDY    75  71  87 SE9       30.18
CRESTVIEW      CLOUDY    71  70  96 S7        30.19F
DUKE FIELD     FAIR      71  69  93 S8        30.18S
VALPARAISO     LGT RAIN  74  71  91 SE6       30.18F
MARY ESTHER    CLOUDY    74  71  88 E6        30.17F
TRI COUNTY     LGT RAIN  69  69 100 S5        30.21F
PANAMA CITY    LGT RAIN  71  69  93 CALM      30.18F FOG
TYNDALL AFB    CLOUDY    71  69  94 VRB3      30.19F
APALACHICOLA     N/A     75  69  81 N15       30.21F

STATION/POSITION SKY/WX   TEMP    WIND        PRES    WAVE   SWELL
                          AIR SEA DIR/SP/G            HT/PER HT/PER
                          (F)     (DEG/KT/KT) (MB)    (FT/S) (FT/S)
30.1N   87.6W              80 84  120/ 10/ 12 1021.1R   1/ 6   2/ 6
29.2N   88.2W              82 86  100/  4/  6 1021.7R   2/ 4   2/ 4
28.8N   86.0W              78 85  310/ 29/ 35 1022.3R   3/ 3
PANAMA CITY BEAC           71 82  240/  2/  2 1023.4F
CAPE SAN BLAS    NOT AVBL
TOWER C                    75     340/ 25/ 28 1022.1F
28.5N   84.5W              86 88  220/  2/  4 1021.7R   2/10   2/10

$$
FLZ011-016>038-118-127-128-134-139-239-051900-
NORTH FLORIDA

CITY           SKY/WX    TMP DP  RH WIND       PRES   REMARKS
MARIANNA       RAIN      70  70 100 S6        30.21F FOG
TALLAHASSEE    TSTM      72  69  90 NW10      30.25S
PERRY          MOSUNNY   90  70  52 SW14G20   30.17R THUNDER HX  96
CROSS CITY       N/A     92  74  55 W14       30.14S HX 101
LAKE CITY      FAIR      88  70  55 S7        30.12F
GAINESVILLE    MOSUNNY   92  71  50 S8        30.13F HX  98
MAYPORT NAS    SUNNY     87  75  67 E10       30.14F HX  96
JACKSONVILLE   MOSUNNY   90  72  55 SE6       30.12F HX  97
JAX NAS        MOSUNNY   93  70  46 S10       30.14F HX  99
JAX CRAIG      PTSUNNY   91  69  48 CALM      30.13F HX  96
JAX CECIL      PTSUNNY   91  73  55 S7        30.14F HX 100
FERNANDINA BEA FAIR      88  72  58 SE13      30.13F
ST AUGUSTINE   SUNNY     86  77  74 SE14      30.15F HX  97

STATION/POSITION SKY/WX   TEMP    WIND        PRES    WAVE   SWELL
                          AIR SEA DIR/SP/G            HT/PER HT/PER
                          (F)     (DEG/KT/KT) (MB)    (FT/S) (FT/S)
SHELL POINT                86     170/ 10/ 13   N/A
KEATON BEACH               85     250/ 11/ 15 1021.8R
CEDAR KEY                  85     220/  7/  9 1021.5F
FERNANDINA                 84 78  140/  7/ 11 1020.2F
30.7N   81.3W                 78                N/A     2/ 8
MAYPORT                    84 75  120/  7/ 10 1021.2F
31.4N   80.9W              78 80  170/ 10/ 12 1021.3S   2/ 9   2/ 9
ST AUGUSTINE               78 72  130/  9/  9 1021.8F

$$
FLZ040-043>046-052-053-057-058-063-144-051900-
INTERIOR CENTRAL FLORIDA

CITY           SKY/WX    TMP DP  RH WIND       PRES   REMARKS
OCALA          PTSUNNY   91  72  52 SW8       30.14F HX  98
THE VILLAGES     N/A    N/A N/A N/A CALM      30.04F
LEESBURG       SUNNY     91  73  55 SE6       30.15F HX  99
SANFORD        SUNNY     93  70  46 S9        30.14F HX  99
ORLANDO EXEC   PTSUNNY   90  72  55 SE9       30.14F HX  97
ORLANDO INTL   PTSUNNY   93  72  50 S10       30.14F HX 101
KISSIMMEE      PTSUNNY   91  72  52 SE9       30.15F HX  98
WINTER HAVEN   SUNNY     92  72  51 S7        30.16F HX  99
LAKELAND       PTSUNNY   91  73  55 CALM      30.15F HX 100
OKEECHOBEE     SUNNY     90  70  51 S7        30.15F HX  95

$$
FLZ041-047-054-059-064-141-147-051900-
EAST CENTRAL FLORIDA

CITY           SKY/WX    TMP DP  RH WIND       PRES   REMARKS
ORMOND BEACH   MOSUNNY   86  75  70 E8        30.15F HX  95
DAYTONA BEACH  PTSUNNY   88  75  65 E8        30.15F HX  97
DELAND           N/A     90  72  55 CALM      30.15F HX  96
NEW SMYRNA BEA MOSUNNY   86  77  74 E8        30.17F HX  97
JFK SPACE CTR  PTSUNNY   88  76  69 E9        30.15F HX  98
TITUSVILLE     PTSUNNY   88  73  62 SE12      30.15F HX  96
CAPE CANAVERAL MOSUNNY   88  77  69 S12       30.15F HX  99
PATRICK AFB    MOSUNNY   87  78  72 E12       30.15F HX 100
MELBOURNE      MOSUNNY   87  76  69 E14       30.15F HX  97
VERO BEACH     MOSUNNY   91  74  57 E13       30.16F HX 100
FT PIERCE      LGT RAIN  84  76  76 E10       30.15F
STUART         TSTM      82  73  74 E12       30.18

STATION/POSITION SKY/WX   TEMP    WIND        PRES    WAVE   SWELL
                          AIR SEA DIR/SP/G            HT/PER HT/PER
                          (F)     (DEG/KT/KT) (MB)    (FT/S) (FT/S)
28.5N   80.2W              82 83  130/  4/  6 1022.2F
28.9N   78.5W              76 84   10/ 17/ 21 1023.3R
TRIDENT PIER               89 77  110/  4/  7 1022.3F
28.4N   80.5W                 82                N/A     1/ 9
27.5N   80.2W                 85                N/A     1/10

$$
FLZ050-056-061-142-242-148-248-149-249-151-251-155-255-
160-260-051900-
WEST CENTRAL FLORIDA

CITY           SKY/WX    TMP DP  RH WIND       PRES   REMARKS
CRYSTAL RIVER  FAIR      91  73  55 W9G16     30.13F HX 100
INVERNESS      FAIR     N/A N/A N/A S6        30.14F
BROOKSVILLE    PTSUNNY   90  72  55 VRB5      30.15F THUNDER HX  97
ZEPHYRHILLS    FAIR      91  68  46 CALM      30.15F HX  95
CLEARWATER     MOSUNNY   82  75  79 NE8       30.14F
TAMPA INTL     MOSUNNY   90  73  57 SW10      30.15F HX  98
TAMPA EXEC     MOSUNNY  N/A N/A N/A S3        30.14F
PLANT CITY     SUNNY     93  73  52 SE7       30.16F HX 102
MACDILL AFB    PTSUNNY   93  78  61 VRB6      30.14F HX 108
PETER O KNIGHT SUNNY     93  75  55 SW5       30.14F HX 104
ST PETERSBURG  SUNNY     90  73  57 SE5       30.13F HX  98
SARASOTA       MOSUNNY   90  74  59 SW10      30.13F HX  99
VENICE         FAIR      90  75  62 SW12      30.15S HX 100

STATION/POSITION SKY/WX   TEMP    WIND        PRES    WAVE   SWELL
                          AIR SEA DIR/SP/G            HT/PER HT/PER
                          (F)     (DEG/KT/KT) (MB)    (FT/S) (FT/S)
CEDAR KEY                  85     220/  7/  9 1021.5F
28.5N   84.5W              86 88  220/  2/  4 1021.7R   2/10   2/10
27.3N   84.2W                 88                N/A     1/ 7
CLEARWATER BEACH NOT AVBL
MIDDLE TAMPA BAY                  280/  5/  6 1021.5F
VENICE                     86 89  190/  9/ 10 1020.7F

$$
FLZ066-069-070-075>078-162-262-165-265-051900-
SOUTHWEST FLORIDA AND KEYS

CITY           SKY/WX    TMP DP  RH WIND       PRES   REMARKS
PUNTA GORDA    MOSUNNY   91  74  57 S8        30.15F HX 100
FT MYERS       PTSUNNY   92  74  55 SE6       30.12F HX 101
SOUTHWEST INTL PTSUNNY   90  73  57 SE8       30.13F HX  98
NAPLES         CLOUDY    89  76  65 E8        30.12F HX 100
MARCO ISLAND     N/A     91  73  55 S5        30.13F HX 100
MARATHON       PTSUNNY   89  77  67 E12       30.14F HX 101
KEY WEST NAS   MOSUNNY   90  76  63 E14       30.13F HX 101
KEY WEST INTL  MOSUNNY   90  78  68 E12       30.14F HX 104

STATION/POSITION SKY/WX   TEMP    WIND        PRES    WAVE   SWELL
                          AIR SEA DIR/SP/G            HT/PER HT/PER
                          (F)     (DEG/KT/KT) (MB)    (FT/S) (FT/S)
VENICE                     86 89  190/  9/ 10 1020.7F
NAPLES                        88              1021.8F
26.0N   85.6W              85 86   90/  6/  8 1020.4F   2/ 9   2/ 9
DRY TORTUGAS               85     130/  9/ 10 1020.5F
NW FL BAY                  86     120/  8/ 10 1021.2
SAND KEY                   85      90/ 13/ 14 1020.3F
SOMBRERO KEY               85     100/ 14/ 15 1021.5F
LONG KEY                   85 88  100/ 10/ 11 1021.6F
MOLASSES REEF              84 86  120/ 12/ 13 1021.4F

$$
FLZ067-068-071>074-168-172>174-051900-
SOUTHEAST FLORIDA

CITY           SKY/WX    TMP DP  RH WIND       PRES   REMARKS
W PALM BEACH   MOSUNNY   89  75  63 SE14      30.16F HX  99
FT LAUDER-EXEC MOSUNNY   91  71  51 E14G20    30.14F HX  97
FT LAUDERDALE  MOSUNNY   90  74  59 SE12      30.14F HX  99
POMPANO BEACH  SUNNY     89  74  60 SE12      30.15F HX  98
PEMBROKE PINES SUNNY     92  71  50 SE14      30.15F HX  98
OPA LOCKA      MOSUNNY   92  73  53 SE16      30.15F HX 100
MIAMI          PTSUNNY   90  71  53 SE13G18   30.15F HX  96
WEST KENDALL   SUNNY     91  74  57 E12       30.15F HX 100
HOMESTEAD      PTSUNNY   89  73  59 E12G17    30.14F HX  97

STATION/POSITION SKY/WX   TEMP    WIND        PRES    WAVE   SWELL
                          AIR SEA DIR/SP/G            HT/PER HT/PER
                          (F)     (DEG/KT/KT) (MB)    (FT/S) (FT/S)
PORT EVERGLADES            86     140/  8/ 11 1021.7F
VIRGINIA KEY               85 88  120/  6/ 10 1021.4F
LAKE WORTH                 84 85  150/  9/ 10 1021.5F
SETTLEMENT POINT           85     170/ 11/ 14 1022.2F

$$



USA.gov is the U.S. government's official web portal to all federal, state and local government web resources and services.